Longville, MN

12:44 AM CST on February 20, 2017 (GMT -0600)
Longville Municipal

Weather History for KXVG - October, 2011

Change the Weather History Date:

Tuesday, October 11, 2011

  Actual Average (KPWC) Record (KPWC)
Temperature  
Mean Temperature 60 °F -  
Max Temperature 71 °F 54 °F 87 °F (2015)
Min Temperature 48 °F 35 °F 24 °F (2006)
Degree Days  
Heating Degree Days 6    
Growing Degree Days 10 (Base 50)    
Moisture  
Dew Point 52 °F    
Average Humidity 76    
Maximum Humidity 100    
Minimum Humidity 46    
Precipitation  
Precipitation 0.00 in - - ()
Sea Level Pressure  
Sea Level Pressure 29.80 in    
Wind  
Wind Speed 7 mph (SSE)    
Max Wind Speed 18 mph    
Max Gust Speed 23 mph    
Visibility 10 miles    
Events      
Averages and records for this station are not official NWS values.
T = Trace of Precipitation, MM = Missing Value Source: NWS Daily Summary

Daily Weather History Graph

Daily Weather History Graph

Search for Another Location

Airport or City:

Trip Planner

Search our weather history database for the weather conditions in past years. The results will help you decide how hot, cold, wet, or windy it might be!

Date:

Astronomy

Oct. 11, 2011 Rise Set
Actual Time 7:28 AM CDT 6:37 PM CDT
Civil Twilight 6:58 AM CDT 7:07 PM CDT
Nautical Twilight 6:23 AM CDT 7:43 PM CDT
Astronomical Twilight 5:47 AM CDT 8:18 PM CDT
Moon 6:05 PM CDT (10/11) 7:10 AM CDT (10/11)
Length of Visible Light 12h 09m
Length of Day
11h 08m
Full, 100% of the Moon is Illuminated
Oct 11
Full
Oct 11
Full
Oct 19
Last Quarter
Oct 26
New
Nov 2
First Quarter

Hourly Weather History & Observations

Time (CDT) Temp. Dew Point Humidity Pressure Visibility Wind Dir Wind Speed Gust Speed Precip Events Conditions
12:17 AM 55.4 °F 53.6 °F 94% 29.84 in 7.0 mi South 5.8 mph - N/A   Scattered Clouds
12:37 AM 55.4 °F 53.6 °F 94% 29.84 in 7.0 mi South 4.6 mph - N/A   Clear
12:57 AM 53.6 °F 53.6 °F 100% 29.84 in 7.0 mi South 4.6 mph - N/A   Clear
1:17 AM 53.6 °F 53.6 °F 100% 29.83 in 5.0 mi SSE 6.9 mph - N/A   Clear
1:37 AM 55.4 °F 53.6 °F 94% 29.83 in 7.0 mi SSE 6.9 mph - N/A   Clear
1:57 AM 55.4 °F 53.6 °F 94% 29.82 in 10.0 mi SSE 6.9 mph - N/A   Scattered Clouds
2:17 AM 55.4 °F 53.6 °F 94% 29.82 in 10.0 mi SSE 8.1 mph - N/A   Scattered Clouds
2:37 AM 55.4 °F 53.6 °F 94% 29.82 in 10.0 mi SSE 8.1 mph - N/A   Mostly Cloudy
2:57 AM 55.4 °F 53.6 °F 94% 29.81 in 10.0 mi SSE 10.4 mph - N/A   Scattered Clouds
3:17 AM 55.4 °F 51.8 °F 88% 29.81 in 10.0 mi South 8.1 mph - N/A   Scattered Clouds
3:37 AM 55.4 °F 51.8 °F 88% 29.80 in 10.0 mi SSE 11.5 mph 19.6 mph N/A   Clear
4:17 AM 55.4 °F 51.8 °F 88% 29.80 in 10.0 mi South 9.2 mph - N/A   Clear
4:37 AM 55.4 °F 51.8 °F 88% 29.80 in 10.0 mi South 5.8 mph - N/A   Clear
4:57 AM 55.4 °F 51.8 °F 88% 29.81 in 10.0 mi South 6.9 mph - N/A   Clear
5:17 AM 55.4 °F 51.8 °F 88% 29.81 in 10.0 mi South 9.2 mph - N/A   Clear
5:38 AM 53.6 °F 51.8 °F 94% 29.81 in 10.0 mi South 5.8 mph - N/A   Clear
6:17 AM 53.6 °F 50.0 °F 88% 29.81 in 10.0 mi South 4.6 mph - N/A   Clear
6:37 AM 53.6 °F 50.0 °F 88% 29.82 in 10.0 mi South 4.6 mph - N/A   Clear
6:57 AM 51.8 °F 50.0 °F 94% 29.82 in 10.0 mi South 4.6 mph - N/A   Clear
7:17 AM 51.8 °F 50.0 °F 94% 29.82 in 10.0 mi South 5.8 mph - N/A   Clear
7:37 AM 50.0 °F 48.2 °F 94% 29.82 in 10.0 mi Calm Calm - N/A   Clear
7:57 AM 48.2 °F 48.2 °F 100% 29.82 in 10.0 mi Calm Calm - N/A   Clear
8:18 AM 51.8 °F 48.2 °F 88% 29.83 in 10.0 mi Calm Calm - N/A   Clear
8:37 AM 51.8 °F 50.0 °F 94% 29.83 in 10.0 mi SSE 3.5 mph - N/A   Clear
8:57 AM 53.6 °F 51.8 °F 94% 29.82 in 10.0 mi SSE 6.9 mph - N/A   Clear
9:17 AM 55.4 °F 51.8 °F 88% 29.82 in 10.0 mi SSE 8.1 mph - N/A   Clear
9:37 AM 57.2 °F 51.8 °F 82% 29.82 in 10.0 mi SSE 6.9 mph - N/A   Clear
9:57 AM 59.0 °F 53.6 °F 82% 29.82 in 10.0 mi South 6.9 mph - N/A   Clear
10:17 AM 60.8 °F 51.8 °F 72% 29.82 in 10.0 mi SSE 9.2 mph - N/A   Clear
10:37 AM 60.8 °F 53.6 °F 77% 29.82 in 10.0 mi SSE 6.9 mph - N/A   Clear
10:57 AM 60.8 °F 53.6 °F 77% 29.81 in 10.0 mi SE 10.4 mph - N/A   Clear
11:37 AM 64.4 °F 53.6 °F 68% 29.81 in 10.0 mi SSE 8.1 mph - N/A   Clear
11:57 AM 64.4 °F 53.6 °F 68% 29.81 in 10.0 mi SSE 8.1 mph - N/A   Clear
12:17 PM 66.2 °F 53.6 °F 64% 29.81 in 10.0 mi SSE 8.1 mph - N/A   Clear
12:37 PM 68.0 °F 53.6 °F 60% 29.80 in 10.0 mi South 8.1 mph - N/A   Clear
12:57 PM 69.8 °F 53.6 °F 56% 29.80 in 10.0 mi SSE 10.4 mph - N/A   Clear
1:18 PM 69.8 °F 53.6 °F 56% 29.79 in 10.0 mi SSE 11.5 mph 17.3 mph N/A   Clear
1:37 PM 69.8 °F 53.6 °F 56% 29.79 in 10.0 mi SSE 11.5 mph 20.7 mph N/A   Clear
1:57 PM 71.6 °F 53.6 °F 53% 29.78 in 10.0 mi SSE 15.0 mph 19.6 mph N/A   Clear
2:17 PM 71.6 °F 51.8 °F 50% 29.77 in 10.0 mi SSE 16.1 mph 20.7 mph N/A   Clear
2:37 PM 71.6 °F 51.8 °F 50% 29.77 in 10.0 mi SSE 13.8 mph 20.7 mph N/A   Clear
2:57 PM 71.6 °F 51.8 °F 50% 29.77 in 10.0 mi SSE 13.8 mph 20.7 mph N/A   Clear
3:17 PM 71.6 °F 51.8 °F 50% 29.77 in 10.0 mi SSE 18.4 mph 23.0 mph N/A   Clear
3:37 PM 71.6 °F 51.8 °F 50% 29.76 in 10.0 mi SSE 15.0 mph 18.4 mph N/A   Clear
3:57 PM 71.6 °F 50.0 °F 46% 29.76 in 10.0 mi SSE 16.1 mph 20.7 mph N/A   Clear
4:17 PM 71.6 °F 50.0 °F 46% 29.76 in 10.0 mi SSE 10.4 mph 20.7 mph N/A   Clear
4:38 PM 71.6 °F 50.0 °F 46% 29.76 in 10.0 mi SSE 10.4 mph 21.9 mph N/A   Clear
4:57 PM 71.6 °F 51.8 °F 50% 29.76 in 10.0 mi SSE 10.4 mph 16.1 mph N/A   Clear
5:17 PM 69.8 °F 51.8 °F 53% 29.76 in 10.0 mi SSE 13.8 mph 19.6 mph N/A   Clear
5:37 PM 69.8 °F 50.0 °F 49% 29.76 in 10.0 mi South 12.7 mph 16.1 mph N/A   Clear
5:57 PM 68.0 °F 51.8 °F 56% 29.76 in 10.0 mi SSE 8.1 mph 16.1 mph N/A   Clear
6:18 PM 66.2 °F 51.8 °F 60% 29.76 in 10.0 mi South 8.1 mph - N/A   Clear
6:37 PM 64.4 °F 51.8 °F 64% 29.77 in 10.0 mi SSE 8.1 mph - N/A   Clear
6:57 PM 64.4 °F 51.8 °F 64% 29.77 in 10.0 mi SSE 6.9 mph - N/A   Clear
7:17 PM 62.6 °F 51.8 °F 68% 29.77 in 10.0 mi SSE 5.8 mph - N/A   Clear
7:37 PM 59.0 °F 51.8 °F 77% 29.78 in 10.0 mi SSE 5.8 mph - N/A   Clear
7:57 PM 57.2 °F 51.8 °F 82% 29.77 in 10.0 mi SSE 5.8 mph - N/A   Clear
8:18 PM 57.2 °F 51.8 °F 82% 29.78 in 10.0 mi SSE 5.8 mph - N/A   Clear
8:37 PM 55.4 °F 50.0 °F 82% 29.77 in 10.0 mi SE 4.6 mph - N/A   Clear
8:57 PM 57.2 °F 50.0 °F 77% 29.78 in 10.0 mi SE 4.6 mph - N/A   Clear
9:17 PM 55.4 °F 50.0 °F 82% 29.77 in 10.0 mi SE 4.6 mph - N/A   Clear
9:37 PM 53.6 °F 48.2 °F 82% 29.78 in 10.0 mi SE 4.6 mph - N/A   Clear
9:58 PM 53.6 °F 48.2 °F 82% 29.77 in 10.0 mi SE 5.8 mph - N/A   Clear
10:17 PM 55.4 °F 48.2 °F 77% 29.77 in 10.0 mi SE 6.9 mph - N/A   Clear
10:38 PM 55.4 °F 48.2 °F 77% 29.77 in 10.0 mi SE 4.6 mph - N/A   Clear
10:58 PM 53.6 °F 48.2 °F 82% 29.77 in 10.0 mi SE 5.8 mph - N/A   Clear
11:17 PM 53.6 °F 48.2 °F 82% 29.77 in 10.0 mi SE 5.8 mph - N/A   Clear
11:37 PM 53.6 °F 48.2 °F 82% 29.76 in 10.0 mi SE 4.6 mph - N/A   Clear
11:57 PM 51.8 °F 48.2 °F 88% 29.76 in 10.0 mi SE 4.6 mph - N/A   Clear